TimeEDT,TemperatureF,Dew PointF,Humidity,Sea Level PressureIn,VisibilityMPH,Wind Direction,Wind SpeedMPH,Gust SpeedMPH,PrecipitationIn,Events,Conditions,WindDirDegrees,DateUTC
12:17 AM,44.6,42.8,93,29.22,4.0,North,23.0,40.3,N/A,,Overcast,10,2012-10-30 04:17:00
12:36 AM,44.6,42.8,93,29.20,7.0,North,27.6,40.3,0.00,Rain,Light Rain,10,2012-10-30 04:36:00
12:53 AM,45.0,43.0,93,29.20,5.0,North,24.2,40.3,0.00,,Overcast,360,2012-10-30 04:53:00
1:53 AM,46.9,44.1,90,29.14,4.0,North,26.5,38.0,0.01,Rain,Light Rain,10,2012-10-30 05:53:00
2:46 AM,48.2,46.4,93,29.09,4.0,North,28.8,39.1,0.01,Rain,Light Rain,10,2012-10-30 06:46:00
2:53 AM,48.0,46.0,93,29.09,3.0,North,27.6,39.1,0.01,Rain,Light Rain,10,2012-10-30 06:53:00
3:53 AM,48.9,46.9,93,29.05,5.0,North,26.5,40.3,0.01,Rain,Light Rain,10,2012-10-30 07:53:00
4:35 AM,50.0,48.2,94,29.04,1.8,NNE,23.0,35.7,0.12,Rain,Heavy Rain,20,2012-10-30 08:35:00
4:46 AM,50.0,48.2,94,29.04,3.0,NNE,17.3,23.0,0.16,Rain,Light Rain,30,2012-10-30 08:46:00
4:53 AM,51.1,48.9,92,29.04,7.0,North,25.3,36.8,0.16,Rain,Light Rain,10,2012-10-30 08:53:00
5:53 AM,53.1,51.1,93,29.03,10.0,NNE,13.8,25.3,0.00,,Overcast,30,2012-10-30 09:53:00
6:03 AM,53.6,51.8,94,29.03,10.0,NE,15.0,-,N/A,,Overcast,40,2012-10-30 10:03:00
7:53 AM,53.1,46.0,77,29.10,10.0,ENE,15.0,23.0,0.03,,Overcast,60,2012-10-30 11:53:00
8:53 AM,53.1,44.1,71,29.13,10.0,ENE,10.4,-,N/A,,Scattered Clouds,60,2012-10-30 12:53:00
9:53 AM,52.0,46.0,80,29.14,10.0,ENE,8.1,-,0.00,,Overcast,70,2012-10-30 13:53:00
10:53 AM,53.1,42.1,66,29.17,10.0,East,12.7,21.9,N/A,,Overcast,90,2012-10-30 14:53:00
11:53 AM,52.0,42.1,69,29.19,10.0,East,8.1,23.0,0.00,,Overcast,90,2012-10-30 15:53:00
12:53 PM,52.0,41.0,66,29.20,10.0,East,11.5,-,N/A,,Overcast,90,2012-10-30 16:53:00
1:53 PM,53.1,39.0,59,29.20,10.0,ESE,13.8,-,N/A,,Mostly Cloudy,110,2012-10-30 17:53:00
2:53 PM,53.1,39.0,59,29.22,10.0,East,11.5,-,N/A,,Scattered Clouds,100,2012-10-30 18:53:00
3:53 PM,50.0,41.0,71,29.24,10.0,East,13.8,-,0.00,Rain,Light Rain,90,2012-10-30 19:53:00
4:53 PM,48.0,42.1,80,29.26,10.0,SSE,3.5,-,0.02,,Overcast,160,2012-10-30 20:53:00
5:53 PM,46.9,39.9,77,29.29,10.0,ESE,5.8,-,0.00,,Overcast,110,2012-10-30 21:53:00
6:53 PM,46.0,39.0,76,29.32,10.0,ESE,3.5,-,N/A,,Overcast,120,2012-10-30 22:53:00
8:53 PM,44.1,37.9,79,29.36,10.0,Calm,Calm,-,0.00,Rain,Light Rain,0,2012-10-31 00:53:00
9:53 PM,44.1,37.9,79,29.38,10.0,ESE,4.6,-,0.00,,Overcast,110,2012-10-31 01:53:00
10:53 PM,43.0,36.0,76,29.38,10.0,ESE,4.6,-,N/A,,Mostly Cloudy,110,2012-10-31 02:53:00
11:53 PM,42.1,35.1,76,29.38,10.0,SE,5.8,-,N/A,,Mostly Cloudy,130,2012-10-31 03:53:00